EW6566 Weather Reports


Display with metric or nautical units.
time (UTC)temp
F
wind
direction
speed
MPH
gust
MPH
rain 1hr
in
rain 24hr
in
rain mn
in
humidity
%
barometer
mb
20260506032519 51 0.0 0.0 0.00 0.00 0.00 81 1008.7
20260506031520 51 0.0 0.0 0.00 0.00 0.00 81 1008.8
20260506030519 51 0.0 0.0 0.00 0.00 0.00 81 1008.9
20260506025519 51 0.0 0.0 0.00 0.00 0.00 81 1009.0
20260506024519 51 0.0 0.0 0.00 0.00 0.00 81 1009.1
20260506023519 51 0.0 0.0 0.00 0.00 0.00 81 1009.0
20260506022519 51 0.0 0.0 0.00 0.00 0.00 81 1009.1
20260506021520 51 0.0 0.0 0.00 0.00 0.00 81 1009.1
20260506020519 51 0.0 0.0 0.00 0.00 0.00 80 1009.1
20260506015519 51 0.0 0.0 0.00 0.00 0.00 79 1009.2
20260506014519 51 0.0 0.0 0.00 0.00 0.00 78 1009.1
20260506013519 51 0.0 0.0 0.00 0.00 0.00 78 1009.2
20260506012521 51 0.0 0.0 0.00 0.00 0.00 78 1009.1
20260506011520 51 0.0 0.0 0.00 0.00 0.00 78 1009.2
20260506010520 51 0.0 0.0 0.00 0.00 0.00 79 1009.4
20260506005519 51 0.0 0.0 0.00 0.00 0.00 80 1009.4
20260506004519 51 0.0 0.0 0.00 0.00 0.00 79 1009.6
20260506003519 51 0.0 0.0 0.00 0.00 0.00 79 1009.6
20260506002519 51 0.0 0.0 0.00 0.00 0.00 79 1009.7
20260506001519 51 0.0 0.0 0.00 0.00 0.00 79 1009.8
20260506000523 51 0.0 0.0 0.00 0.00 0.00 79 1009.7
20260505235539 51 0.0 0.0 0.00 0.00 0.00 80 1009.7
20260505234519 51 0.0 0.0 0.00 0.00 0.00 80 1009.9
20260505233519 51 0.0 0.0 0.00 0.00 0.00 81 1010.0
20260505232540 51 0.0 0.0 0.00 0.00 0.00 81 1010.1
20260505231519 51 0.0 0.0 0.00 0.00 0.00 81 1010.1
20260505230519 50 0.0 0.0 0.00 0.00 0.00 81 1010.1
20260505225539 50 0.0 0.0 0.00 0.00 0.00 81 1010.2
20260505224539 50 0.0 0.0 0.00 0.00 0.00 81 1010.3
20260505223520 50 0.0 0.0 0.00 0.00 0.00 81 1010.2
20260505222519 50 0.0 0.0 0.00 0.00 0.00 80 1010.3
20260505221519 50 0.0 0.0 0.00 0.00 0.00 80 1010.5
20260505220519 50 0.0 0.0 0.00 0.00 0.00 78 1010.5
20260505215539 50 0.0 0.0 0.00 0.00 0.00 77 1010.5
20260505214519 51 0.0 0.0 0.00 0.00 0.00 76 1010.5
20260505213535 51 0.0 0.0 0.00 0.00 0.00 74 1010.5
20260505212519 51 0.0 0.0 0.00 0.00 0.00 72 1010.6
20260505211519 51 0.0 0.0 0.00 0.00 0.00 71 1010.6
20260505210539 51 0.0 0.0 0.00 0.00 0.00 71 1010.7
20260505205519 52 0.0 0.0 0.00 0.00 0.00 70 1010.6
20260505204519 52 0.0 0.0 0.00 0.00 0.00 69 1010.7
20260505203540 52 0.0 0.0 0.00 0.00 0.00 71 1010.8
20260505202539 52 0.0 0.0 0.00 0.00 0.00 70 1010.8
20260505201519 52 0.0 0.0 0.00 0.00 0.00 71 1010.8
20260505200519 52 0.0 0.0 0.00 0.00 0.00 71 1010.8
20260505195519 53 0.0 0.0 0.00 0.00 0.00 73 1010.7
20260505194540 53 0.0 0.0 0.00 0.00 0.00 73 1010.6
20260505193519 53 0.0 0.0 0.00 0.00 0.00 73 1010.5
20260505192519 53 0.0 0.0 0.00 0.00 0.00 73 1010.4
20260505191519 53 0.0 0.0 0.00 0.00 0.00 73 1010.3
20260505190539 53 0.0 0.0 0.00 0.00 0.00 72 1010.2
20260505185519 53 0.0 0.0 0.00 0.00 0.00 71 1010.2
20260505184519 54 0.0 0.0 0.00 0.00 0.00 70 1010.1
20260505183519 54 0.0 0.0 0.00 0.00 0.00 70 1010.1
20260505182519 54 0.0 0.0 0.00 0.00 0.00 69 1010.2
20260505181519 55 0.0 0.0 0.00 0.00 0.00 69 1010.0
20260505180519 55 0.0 0.0 0.00 0.00 0.00 69 1010.0
20260505175519 55 0.0 0.0 0.00 0.00 0.00 68 1010.0
20260505174520 56 0.0 0.0 0.00 0.00 0.00 68 1009.9
20260505173539 56 0.0 0.0 0.00 0.00 0.00 66 1010.0
20260505172518 56 0.0 0.0 0.00 0.00 0.00 67 1010.1
20260505171518 56 0.0 0.0 0.00 0.00 0.00 67 1010.2
20260505170518 56 0.0 0.0 0.00 0.00 0.00 67 1010.2
20260505165540 56 0.0 0.0 0.00 0.00 0.00 68 1010.1
20260505164518 56 0.0 0.0 0.00 0.00 0.00 66 1010.2
20260505163518 56 0.0 0.0 0.00 0.00 0.00 65 1010.2
20260505162519 57 0.0 0.0 0.00 0.00 0.00 64 1010.2
20260505161538 57 0.0 0.0 0.00 0.00 0.00 64 1010.2
20260505160518 57 0.0 0.0 0.00 0.00 0.00 63 1010.2
20260505152518 58 0.0 0.0 0.00 0.00 0.00 62 1010.3
20260505151538 58 0.0 0.0 0.00 0.00 0.00 60 1010.4
20260505150518 58 0.0 0.0 0.00 0.00 0.00 62 1010.4
20260505140520 59 0.0 0.0 0.00 0.00 0.00 62 1010.6
20260505124518 58 0.0 0.0 0.00 0.00 0.00 64 1011.0
20260505123538 58 0.0 0.0 0.00 0.00 0.00 66 1011.0
20260505122518 57 0.0 0.0 0.00 0.00 0.00 67 1011.1
20260505121518 57 0.0 0.0 0.00 0.00 0.00 67 1011.0
20260505120520 56 0.0 0.0 0.00 0.00 0.00 71 1011.1
20260505115518 56 0.0 0.0 0.00 0.00 0.00 72 1011.3
20260505114518 56 0.0 0.0 0.00 0.00 0.00 73 1011.4
20260505113518 55 0.0 0.0 0.00 0.00 0.00 74 1011.5
20260505113038 55 0.0 0.0 0.00 0.00 0.00 75 1011.4
20260505112018 55 0.0 0.0 0.00 0.00 0.00 77 1011.5
20260505111018 54 0.0 0.0 0.00 0.00 0.00 78 1011.5
20260505102038 53 0.0 0.0 0.00 0.00 0.00 85 1012.0
20260505101018 53 0.0 0.0 0.00 0.00 0.00 85 1012.0
20260505100538 52 0.0 0.0 0.00 0.00 0.00 85 1012.0
20260505095518 52 0.0 0.0 0.00 0.00 0.00 86 1012.0
20260505094558 52 0.0 0.0 0.00 0.00 0.00 86 1012.0
20260505093518 52 0.0 0.0 0.00 0.00 0.00 86 1012.0
20260505092518 52 0.0 0.0 0.00 0.00 0.00 87 1012.0
20260505091540 52 0.0 0.0 0.00 0.00 0.00 87 1012.0
20260505090518 52 0.0 0.0 0.00 0.00 0.00 88 1012.0
20260505085518 52 0.0 0.0 0.00 0.00 0.00 88 1011.9
20260505084518 52 0.0 0.0 0.00 0.00 0.00 88 1011.9
20260505083538 52 0.0 0.0 0.00 0.00 0.00 88 1011.9
20260505082520 52 0.0 0.0 0.00 0.00 0.00 88 1012.0
20260505081518 52 0.0 0.0 0.00 0.00 0.00 89 1011.9
20260505080518 51 0.0 0.0 0.00 0.00 0.00 90 1011.9
20260505075518 51 0.0 0.0 0.00 0.00 0.00 91 1012.1
20260505074518 51 0.0 0.0 0.00 0.00 0.00 92 1012.1
20260505073518 51 0.0 0.0 0.00 0.00 0.00 92 1012.0
20260505072518 51 0.0 0.0 0.00 0.00 0.00 92 1012.2
20260505071520 50 0.0 0.0 0.00 0.00 0.00 92 1012.3
20260505070519 50 0.0 0.0 0.00 0.00 0.00 92 1012.5
20260505065519 50 0.0 0.0 0.00 0.00 0.00 92 1012.7
20260505064519 50 0.0 0.0 0.00 0.00 0.00 93 1012.6
20260505063520 50 0.0 0.0 0.00 0.00 0.00 93 1012.7
20260505062520 50 0.0 0.0 0.00 0.00 0.00 93 1012.8
20260505061519 50 0.0 0.0 0.00 0.00 0.00 93 1012.8
20260505060540 50 0.0 0.0 0.00 0.00 0.00 93 1012.7
20260505055520 50 0.0 0.0 0.00 0.00 0.00 93 1012.7
20260505054540 50 0.0 0.0 0.00 0.00 0.00 93 1012.5
20260505053519 50 0.0 0.0 0.00 0.00 0.00 92 1012.5
20260505052520 50 0.0 0.0 0.00 0.00 0.00 92 1012.3
20260505051519 50 0.0 0.0 0.00 0.00 0.00 92 1012.2
20260505050639 50 0.0 0.0 0.00 0.00 0.00 92 1012.1
20260505041519 51 0.0 0.0 0.00 0.00 0.00 91 1012.1
20260505040519 51 0.0 0.0 0.00 0.00 0.00 91 1012.4
20260505035519 51 0.0 0.0 0.00 0.00 0.00 91 1012.1
20260505034519 51 0.0 0.0 0.00 0.00 0.00 91 1012.4
20260505033519 51 0.0 0.0 0.00 0.00 0.00 91 1012.4